Weather in Chelutay (3 km)

Russia / Republic of Buryatia     51°45′27″N   108°21′44″E
temp.,
°C
wind,
m/s
gust,
m/s
humid.,
%
clouds,
%
prec.,
mm/h
press.,
hPa
HPBL,
m
21 april, wed
wed2123:00+1nw226877 0.0 100985
02:00−1w227481 0.0 100934
05:00−3w2286100 0.0 101242
08:00+1wnw3569100 0.0 1013631
11:00+4nw674761 0.0 10141121
14:00+5nw6740100 0.0 10151435
17:00+4nw554069 0.0 10171325
20:00−1nnw4646100 0.0 1020628
22 april, thu
thu2223:00−1nnw2545100 0.1 1022681
02:00−2nw3447100 0.5 1024678
05:00−5nw246773 0.3 1026156
08:00−3nw2352100 0.3 1028602
11:00+2nnw233286 0.0 10271255
14:00+5nnw2324100 0.0 10251728
17:000nw5648100 0.4 1030635
20:00−3wnw2368100 0.6 1034433
23 april, fri
fri2323:00−4wnw1156100 0.0 103723
02:00−4nw2257100 0.0 103973
05:00−5wnw2262100 0.0 104246
08:00−3nw2248100 0.0 1043305
11:00+3nne2330100 0.0 10411087
14:00+6nne2325100 0.0 10391584
17:00+7nne2323100 0.0 10371686
20:00+3nw2243100 0.0 103939
24 april, sat
sat2423:000wnw2267100 0.0 104158
02:00−2nw1173100 0.0 104112
05:00−3nne1176100 0.0 104010
08:00+1ne1250100 0.0 1039252
11:00+8ene242983 0.0 1035967
14:00+13e342487 0.0 10291714
17:00+14ese2329100 0.0 10251909
20:00+9sse1150100 0.0 102512
25 april, sun
sun2523:00+6ene115991 0.0 102411
02:00+5ene1153100 0.0 102210
05:00+3ene114696 0.0 102011
08:00+6ene2337100 0.0 1018235
11:00+9ne1141100 0.0 1014185
14:00+7s1260100 0.1 1013115
17:00+4wnw3576100 0.1 1015370
20:00+1w31084100 0.6 1017666